Вернуться в каталог

STARLINK-36177

АктивенСвязьVLEO
NORAD 66932·PAYLOAD·🇺🇸 United States

Запущен Dec 7, 2025 с Vandenberg Space Force Base

Loading…

Ближайшие Пролёты (ближайшие 24 часа)

TLE

СвежийSource: CelesTrak SupGP

Эпоха: Sep 14, 2026, 21:04 UTC

1 66932C 25286H   26257.87826389  .00017164  00000+0  50696-3 0  2576
2 66932  53.1575 195.9618 0001305  97.5870 311.3416 15.34390972    11

Отслеживайте STARLINK-36177 в реальном времени с AllMySat

Download on the App Store